HULIANWAN GAOGUI-01 (H*)

Last updated on Thu Oct 03 2024 00:02:42 GMT+0000 (Coordinated Universal Time)

1 59069U 24040A 24276.26577337 .00000156 00000+0 00000+0 0 9990 2 59069 0.0119 40.4291 0006159 294.3229 166.0704 1.00270524 1088
UTC large
Height (km)
Speed (km/s)
/
Latitude / Longitude
Inclination (degrees)
Orbital Period (minutes)
Azimuth
Elevation
Range (km)
Doppler Factor

Next 0 passes for location: London (51.5072 / 0.1276)

Sorry there are no passes over London.